TimeCDT,TemperatureF,Dew PointF,Humidity,Sea Level PressureIn,VisibilityMPH,Wind Direction,Wind SpeedMPH,Gust SpeedMPH,PrecipitationIn,Events,Conditions,WindDirDegrees,DateUTC
12:15 AM,68.0,64.4,88,30.16,10.0,SW,8.1,-,N/A,,Mostly Cloudy,220,2013-07-29 05:15:00
12:35 AM,68.0,64.4,88,30.15,10.0,West,6.9,-,N/A,,Mostly Cloudy,260,2013-07-29 05:35:00
12:55 AM,68.0,62.6,83,30.14,10.0,West,6.9,-,N/A,,Scattered Clouds,260,2013-07-29 05:55:00
1:15 AM,66.2,62.6,88,30.13,10.0,SW,3.5,-,N/A,,Clear,220,2013-07-29 06:15:00
1:35 AM,66.2,64.4,94,30.14,10.0,Calm,Calm,-,N/A,,Clear,0,2013-07-29 06:35:00
1:55 AM,66.2,62.6,88,30.13,10.0,East,5.8,-,N/A,,Scattered Clouds,90,2013-07-29 06:55:00
2:15 AM,68.0,62.6,83,30.13,10.0,NE,3.5,-,N/A,,Partly Cloudy,40,2013-07-29 07:15:00
2:35 AM,66.2,64.4,94,30.14,10.0,South,4.6,-,N/A,,Clear,170,2013-07-29 07:35:00
2:55 AM,66.2,64.4,94,30.14,10.0,SSE,4.6,-,N/A,,Clear,160,2013-07-29 07:55:00
3:15 AM,66.2,64.4,94,30.14,10.0,South,5.8,-,N/A,,Partly Cloudy,190,2013-07-29 08:15:00
3:35 AM,66.2,62.6,88,30.14,10.0,Calm,Calm,-,N/A,,Mostly Cloudy,0,2013-07-29 08:35:00
3:55 AM,66.2,60.8,83,30.14,10.0,Calm,Calm,-,N/A,,Overcast,0,2013-07-29 08:55:00
4:15 AM,66.2,62.6,88,30.13,10.0,SSW,5.8,-,N/A,,Mostly Cloudy,210,2013-07-29 09:15:00
4:35 AM,66.2,62.6,88,30.13,10.0,Calm,Calm,-,N/A,,Scattered Clouds,0,2013-07-29 09:35:00
4:55 AM,66.2,62.6,88,30.13,10.0,Calm,Calm,-,N/A,,Scattered Clouds,0,2013-07-29 09:55:00
5:15 AM,64.4,62.6,94,30.13,10.0,Calm,Calm,-,N/A,,Mostly Cloudy,0,2013-07-29 10:15:00
5:35 AM,64.4,62.6,94,30.13,10.0,Calm,Calm,-,N/A,,Mostly Cloudy,0,2013-07-29 10:35:00
5:55 AM,64.4,62.6,94,30.13,10.0,Calm,Calm,-,N/A,,Scattered Clouds,0,2013-07-29 10:55:00
6:15 AM,64.4,62.6,94,30.13,10.0,SSE,5.8,-,N/A,,Clear,150,2013-07-29 11:15:00
6:35 AM,64.4,62.6,94,30.13,10.0,North,-9999.0,-,N/A,,Clear,0,2013-07-29 11:35:00
6:55 AM,64.4,62.6,94,30.14,10.0,Calm,Calm,-,N/A,,Partly Cloudy,0,2013-07-29 11:55:00
7:15 AM,64.4,62.6,94,30.15,10.0,Calm,Calm,-,N/A,,Partly Cloudy,0,2013-07-29 12:15:00
7:35 AM,64.4,62.6,94,30.16,10.0,Calm,Calm,-,N/A,,Partly Cloudy,0,2013-07-29 12:35:00
7:55 AM,64.4,62.6,94,30.16,10.0,Calm,Calm,-,N/A,,Partly Cloudy,0,2013-07-29 12:55:00
8:15 AM,66.2,62.6,88,30.17,10.0,ENE,3.5,-,N/A,,Partly Cloudy,70,2013-07-29 13:15:00
8:35 AM,66.2,62.6,88,30.17,10.0,Calm,Calm,-,N/A,,Partly Cloudy,0,2013-07-29 13:35:00
8:55 AM,69.8,62.6,78,30.18,10.0,Calm,Calm,-,N/A,,Clear,0,2013-07-29 13:55:00
9:15 AM,69.8,62.6,78,30.18,10.0,Calm,Calm,-,N/A,,Partly Cloudy,0,2013-07-29 14:15:00
9:35 AM,69.8,62.6,78,30.19,10.0,Calm,Calm,-,N/A,,Partly Cloudy,0,2013-07-29 14:35:00
9:55 AM,71.6,62.6,73,30.20,10.0,South,4.6,-,N/A,,Mostly Cloudy,180,2013-07-29 14:55:00
10:15 AM,73.4,62.6,69,30.20,10.0,South,5.8,-,N/A,,Mostly Cloudy,190,2013-07-29 15:15:00
10:35 AM,73.4,62.6,69,30.20,10.0,South,8.1,-,N/A,,Mostly Cloudy,180,2013-07-29 15:35:00
10:55 AM,77.0,62.6,61,30.20,10.0,SSW,8.1,-,N/A,,Mostly Cloudy,210,2013-07-29 15:55:00
11:15 AM,78.8,64.4,61,30.20,10.0,South,10.4,-,N/A,,Mostly Cloudy,190,2013-07-29 16:15:00
11:35 AM,78.8,62.6,57,30.20,10.0,SW,10.4,-,N/A,,Scattered Clouds,220,2013-07-29 16:35:00
11:55 AM,78.8,64.4,61,30.20,10.0,South,13.8,18.4,N/A,,Scattered Clouds,170,2013-07-29 16:55:00
12:15 PM,80.6,64.4,58,30.20,10.0,South,9.2,-,N/A,,Partly Cloudy,180,2013-07-29 17:15:00
12:35 PM,80.6,64.4,58,30.20,10.0,South,12.7,16.1,N/A,,Clear,180,2013-07-29 17:35:00
12:55 PM,82.4,64.4,54,30.19,10.0,SSW,10.4,16.1,N/A,,Scattered Clouds,210,2013-07-29 17:55:00
1:15 PM,82.4,64.4,54,30.19,10.0,SW,11.5,17.3,N/A,,Mostly Cloudy,220,2013-07-29 18:15:00
1:35 PM,82.4,64.4,54,30.19,10.0,SSW,9.2,16.1,N/A,,Scattered Clouds,210,2013-07-29 18:35:00
1:55 PM,82.4,62.6,51,30.18,10.0,SSW,11.5,-,N/A,,Scattered Clouds,200,2013-07-29 18:55:00
2:15 PM,80.6,60.8,51,30.18,10.0,SSW,6.9,-,N/A,,Partly Cloudy,200,2013-07-29 19:15:00
2:35 PM,80.6,62.6,54,30.18,10.0,SSW,10.4,-,N/A,,Scattered Clouds,210,2013-07-29 19:35:00
2:55 PM,80.6,60.8,51,30.17,10.0,South,10.4,-,N/A,,Partly Cloudy,180,2013-07-29 19:55:00
3:15 PM,80.6,62.6,54,30.17,10.0,South,11.5,-,N/A,,Clear,180,2013-07-29 20:15:00
3:35 PM,82.4,62.6,51,30.18,10.0,South,9.2,-,N/A,,Clear,170,2013-07-29 20:35:00
3:55 PM,82.4,62.6,51,30.17,10.0,South,9.2,-,N/A,Thunderstorm,Clear,170,2013-07-29 20:55:00
4:15 PM,80.6,62.6,54,30.16,10.0,SE,11.5,-,N/A,Thunderstorm,Clear,140,2013-07-29 21:15:00
4:35 PM,73.4,60.8,65,30.18,10.0,NNE,15.0,19.6,N/A,Thunderstorm,Thunderstorm,30,2013-07-29 21:35:00
5:15 PM,66.2,60.8,83,30.21,9.0,WNW,10.4,19.6,N/A,Thunderstorm,Thunderstorm,290,2013-07-29 22:15:00
5:35 PM,66.2,62.6,88,30.20,7.0,NW,11.5,20.7,N/A,Thunderstorm,Thunderstorm,310,2013-07-29 22:35:00
5:55 PM,66.2,62.6,88,30.20,10.0,West,10.4,34.5,N/A,Thunderstorm,Thunderstorm,280,2013-07-29 22:55:00
6:15 PM,66.2,62.6,88,30.19,10.0,WNW,5.8,-,N/A,Thunderstorm,Overcast,300,2013-07-29 23:15:00
6:35 PM,66.2,64.4,94,30.18,10.0,WNW,5.8,-,N/A,,Overcast,290,2013-07-29 23:35:00
6:55 PM,68.0,62.6,83,30.17,10.0,North,4.6,-,0.02,,Overcast,350,2013-07-29 23:55:00
7:15 PM,66.2,64.4,94,30.18,10.0,ENE,9.2,-,0.02,,Overcast,60,2013-07-30 00:15:00
7:35 PM,66.2,64.4,94,30.19,10.0,ENE,6.9,-,0.04,,Overcast,60,2013-07-30 00:35:00
7:55 PM,66.2,62.6,88,30.20,10.0,ENE,5.8,-,0.04,,Mostly Cloudy,60,2013-07-30 00:55:00
8:15 PM,66.2,64.4,94,30.21,10.0,East,6.9,-,N/A,,Scattered Clouds,80,2013-07-30 01:15:00
8:35 PM,66.2,64.4,94,30.21,10.0,ENE,4.6,-,N/A,,Mostly Cloudy,60,2013-07-30 01:35:00
8:55 PM,66.2,64.4,94,30.23,10.0,West,4.6,-,N/A,,Partly Cloudy,270,2013-07-30 01:55:00
9:15 PM,68.0,64.4,88,30.23,10.0,WNW,4.6,-,N/A,,Mostly Cloudy,300,2013-07-30 02:15:00
9:35 PM,68.0,64.4,88,30.23,10.0,West,3.5,-,N/A,,Overcast,270,2013-07-30 02:35:00
9:55 PM,68.0,64.4,88,30.23,10.0,NNE,4.6,-,N/A,,Overcast,30,2013-07-30 02:55:00
10:15 PM,68.0,66.2,94,30.24,10.0,North,4.6,-,N/A,,Mostly Cloudy,10,2013-07-30 03:15:00
10:35 PM,68.0,66.2,94,30.25,10.0,Calm,Calm,-,N/A,,Partly Cloudy,0,2013-07-30 03:35:00
10:55 PM,68.0,66.2,94,30.25,10.0,Calm,Calm,-,N/A,,Clear,0,2013-07-30 03:55:00
11:15 PM,66.2,66.2,100,30.25,10.0,SE,5.8,-,N/A,,Clear,140,2013-07-30 04:15:00
11:35 PM,66.2,64.4,94,30.25,10.0,SE,4.6,-,N/A,,Clear,130,2013-07-30 04:35:00
11:55 PM,66.2,64.4,94,30.25,10.0,West,3.5,-,N/A,,Clear,270,2013-07-30 04:55:00